MST,Max TemperatureF,Mean TemperatureF,Min TemperatureF,Max Dew PointF,MeanDew PointF,Min DewpointF,Max Humidity, Mean Humidity, Min Humidity, Max Sea Level PressureIn, Mean Sea Level PressureIn, Min Sea Level PressureIn, Max VisibilityMiles, Mean VisibilityMiles, Min VisibilityMiles, Max Wind SpeedMPH, Mean Wind SpeedMPH, Max Gust SpeedMPH,PrecipitationIn, CloudCover, Events, WindDirDegrees
2013-7-1,92,75,58,49,40,30,62,37,11,30.31,29.92,29.84,10,9,6,29,6,35,T,1,,139
2013-7-2,86,68,50,54,49,39,100,64,27,30.36,30.08,29.89,10,8,0,36,11,48,1.76,3,Rain-Thunderstorm,248
2013-7-3,82,67,51,61,50,43,89,60,30,30.28,29.99,29.82,10,10,10,24,12,35,0.05,2,Rain-Thunderstorm,268
2013-7-4,82,72,61,57,48,44,56,43,30,30.18,29.87,29.78,10,10,4,18,16,31,0.02,2,Rain-Thunderstorm,264
2013-7-5,79,69,58,53,50,47,72,52,32,29.92,29.87,29.82,10,10,10,24,9,28,0.00,1,,231
2013-7-6,82,69,55,57,53,49,93,63,33,30.23,29.94,29.85,10,10,8,5,4,5,0.49,3,Rain-Thunderstorm,307
2013-7-7,83,67,50,54,48,40,96,60,23,30.23,29.94,29.87,10,10,9,18,4,25,0.00,1,,202
2013-7-8,88,70,51,51,45,37,83,50,17,30.02,29.98,29.94,10,10,10,14,3,20,0.00,2,,226
2013-7-9,88,73,57,50,43,33,62,39,15,30.09,30.01,29.96,10,10,10,15,4,18,0.00,1,,221
2013-7-10,86,72,57,58,51,37,90,55,20,30.36,30.04,29.94,10,9,0,33,4,53,0.96,4,Rain-Thunderstorm,176
2013-7-11,76,66,56,58,56,55,100,77,53,30.32,30.06,29.92,10,10,8,22,7,32,T,3,,235
2013-7-12,77,65,52,57,54,51,100,72,43,30.31,30.01,29.95,10,10,4,21,5,24,0.15,3,Rain,228
2013-7-13,80,66,51,55,52,49,100,68,36,30.08,30.01,29.97,10,10,8,17,4,24,0.00,2,,258
2013-7-14,82,69,55,54,51,46,86,58,30,30.05,29.99,29.93,10,10,10,16,4,30,T,3,Rain,322
2013-7-15,81,68,55,57,53,49,90,63,35,29.96,29.93,29.86,10,10,10,14,3,21,T,3,Rain,73
2013-7-16,70,63,56,60,56,53,97,77,57,30.32,30.03,29.91,10,10,7,12,3,16,0.21,7,Rain-Thunderstorm,245
2013-7-17,74,62,50,61,55,49,100,75,49,30.40,30.14,30.06,10,9,2,16,2,23,0.32,3,Rain-Thunderstorm,100
2013-7-18,80,66,52,56,53,50,100,69,37,30.11,30.03,29.97,10,10,9,16,4,24,0.00,2,,3
2013-7-19,82,69,55,59,54,49,97,66,35,30.03,29.96,29.90,10,10,6,18,4,23,0.15,5,Rain-Thunderstorm,243
2013-7-20,78,67,56,60,56,52,100,70,40,30.24,29.92,29.83,10,10,5,16,3,22,0.42,4,Rain,270
2013-7-21,73,65,57,61,57,54,93,77,61,30.31,29.97,29.86,10,10,10,23,7,28,0.03,5,Rain,220
2013-7-22,72,64,55,61,56,53,97,75,53,30.32,30.08,29.95,10,9,3,17,3,24,0.16,6,Rain-Thunderstorm,248
2013-7-23,76,66,55,57,55,53,93,71,49,30.30,30.02,29.98,10,10,10,15,4,20,0.00,2,Thunderstorm,292
2013-7-24,80,66,52,60,55,48,96,66,36,30.29,30.00,29.93,10,10,4,14,2,18,0.40,3,Rain-Thunderstorm,308
2013-7-25,77,66,55,61,57,52,97,77,57,30.38,30.12,29.98,10,9,1,16,3,23,1.34,4,Rain-Thunderstorm,257
2013-7-26,77,67,57,62,57,54,97,72,47,30.48,30.20,30.07,10,9,2,18,7,23,0.38,4,Rain-Thunderstorm,200
2013-7-27,76,66,55,58,55,53,100,77,53,30.29,30.08,29.96,10,9,5,20,5,24,0.13,4,Rain-Thunderstorm,234
2013-7-28,75,64,52,58,54,51,100,72,43,30.24,29.97,29.91,10,9,0,25,7,35,0.52,3,Fog-Rain,241
2013-7-29,76,64,51,54,51,47,100,69,38,30.14,30.04,29.94,10,10,7,18,5,24,0.07,2,Rain,237
2013-7-30,80,64,48,52,46,41,93,60,27,30.21,30.16,30.13,10,10,10,10,4,17,0.00,0,,213
2013-7-31,84,66,48,57,47,44,78,52,26,30.10,30.03,29.97,10,10,10,15,6,18,0.02,4,,147